SAINT STEPHEN, New Brunswick

3:52 PM AST on February 19, 2017 (GMT -0400)
St. Stephen

Weather History for CWSS - November, 2012

Change the Weather History Date:

Tuesday, November 13, 2012

  Actual Average Record
Temperature  
Mean Temperature 50 °F -  
Max Temperature 62 °F - - ()
Min Temperature 39 °F - - ()
Degree Days  
Heating Degree Days 14    
Moisture  
Dew Point 50 °F    
Average Humidity 89    
Maximum Humidity 95    
Minimum Humidity 80    
Precipitation  
Precipitation 0.08 in - - ()
Sea Level Pressure  
Sea Level Pressure 30.22 in    
Wind  
Wind Speed 8 mph ()    
Max Wind Speed 15 mph    
Max Gust Speed 25 mph    
T = Trace of Precipitation, MM = Missing Value Source: Averaged Metar Reports

Daily Weather History Graph

Daily Weather History Graph

Search for Another Location

Airport or City:

Trip Planner

Search our weather history database for the weather conditions in past years. The results will help you decide how hot, cold, wet, or windy it might be!

Date:

Astronomy

Nov. 13, 2012 Rise Set
Actual Time 7:25 AM AST 5:01 PM AST
Civil Twilight 6:53 AM AST 5:32 PM AST
Nautical Twilight 6:17 AM AST 6:08 PM AST
Astronomical Twilight 5:42 AM AST 6:43 PM AST
Moon 6:59 AM AST (11/13) 4:49 PM AST (11/13)
Length of Visible Light 10h 39m
Length of Day
9h 36m
Waning Crescent, 0% of the Moon is Illuminated
Nov 13
Waning Crescent
Nov 13
New
Nov 20
First Quarter
Nov 28
Full
Dec 6
Last Quarter

Hourly Weather History & Observations

Time (AST) Temp. Windchill Dew Point Humidity Pressure Visibility Wind Dir Wind Speed Gust Speed Precip Events Conditions
12:00 AM 57.9 °F - 55.4 °F 91% 30.30 in - South 11.5 mph - N/A   Unknown
1:00 AM 57.7 °F - 54.7 °F 90% 30.28 in - South 8.1 mph - N/A   Unknown
2:00 AM 58 °F - 55 °F 86% 30.27 in - South 10.4 mph - -  
2:00 AM 58.3 °F - 54.9 °F 88% 30.27 in - South 10.4 mph 17.3 mph N/A   Unknown
3:00 AM 58.5 °F - 55.4 °F 90% 30.25 in - South 9.2 mph - N/A   Unknown
4:00 AM 58.3 °F - 55.4 °F 90% 30.23 in - South 9.2 mph 18.4 mph N/A   Unknown
5:00 AM 58 °F - 55 °F 88% 30.20 in - South 5.8 mph - -  
5:00 AM 58.1 °F - 55.4 °F 91% 30.20 in - South 5.8 mph - N/A   Unknown
6:00 AM 57.7 °F - 55.6 °F 92% 30.18 in - South 6.9 mph - N/A   Unknown
7:00 AM 59.0 °F - 56.7 °F 92% 30.16 in - South 9.2 mph - N/A   Unknown
8:00 AM 60 °F - 57 °F 85% 30.16 in - South 11.5 mph - -  
9:00 AM 61.2 °F - 56.7 °F 85% 30.15 in - South 15.0 mph 25.3 mph N/A   Unknown
10:00 AM 61.3 °F - 56.8 °F 85% 30.14 in - South 12.7 mph 24.2 mph N/A   Unknown
11:00 AM 62 °F - 58 °F 83% 30.13 in - SSW 12.7 mph - -  
11:00 AM 61.7 °F - 58.1 °F 88% 30.13 in - SSW 12.7 mph 23.0 mph N/A   Unknown
12:00 PM 60.8 °F - 58.1 °F 91% 30.11 in - South 11.5 mph 24.2 mph 0.01 in   Unknown
1:00 PM 59.4 °F - 57.6 °F 94% 30.10 in - SSW 11.5 mph 20.7 mph 0.05 in   Unknown
2:00 PM 51 °F - 49 °F 91% 30.14 in - WNW 6.9 mph - -  
2:00 PM 50.9 °F - 49.1 °F 94% 30.14 in - WNW 6.9 mph - 0.03 in   Unknown
3:00 PM 48.7 °F - 47.1 °F 94% 30.16 in - WNW 4.6 mph - 0.01 in   Unknown
4:00 PM 48.7 °F - 47.5 °F 95% 30.17 in - WNW 3.5 mph - 0.01 in   Unknown
5:00 PM 47 °F - 46 °F 94% 30.19 in - West 5.8 mph - -  
5:00 PM 47.5 °F - 45.9 °F 94% 30.19 in - West 5.8 mph - 0.04 in   Unknown
6:00 PM 41.7 °F 36.1 °F 38.3 °F 88% 30.24 in - WNW 9.2 mph 23.0 mph N/A   Unknown
7:00 PM 41.4 °F 37.6 °F 39.0 °F 91% 30.28 in - WNW 5.8 mph - N/A   Unknown
8:00 PM 41 °F - 38 °F 87% 30.30 in - WNW 3.5 mph - -  
8:00 PM 41.0 °F 39.0 °F 38.5 °F 91% 30.30 in - WNW 3.5 mph - N/A   Unknown
9:00 PM 41.0 °F 38.0 °F 37.9 °F 89% 30.33 in - WNW 4.6 mph - N/A   Unknown
10:00 PM 40.3 °F 36.3 °F 36.1 °F 85% 30.35 in - NW 5.8 mph - N/A   Unknown
11:00 PM 39 °F - 35 °F 80% 30.36 in - WNW 3.5 mph - -  
11:00 PM 39.4 °F 37.2 °F 35.1 °F 84% 30.36 in - WNW 3.5 mph - N/A   Unknown